Location: ????????
(55.4000°N, 39.1167°E)
Time: 17:42:23
(UTC+00:00)

Cosmos 1536 - Pass Details

Date: 19 May 2025
Orbit: 494 x 518 km, 82.5° (Epoch: 20 June)

Event Time Altitude Azimuth Distance (km) Brightness Sun altitude
Rises 18:19:03 0° 355° (N) 2,650 7.3 -5.5°
Reaches altitude 10° 18:21:29 10° 9° (N) 1,753 6.0 -5.7°
Maximum altitude 18:24:43 25° 66° (ENE) 1,068 4.1 -6.0°
Drops below altitude 10° 18:27:54 10° 123° (ESE) 1,729 4.7 -6.3°
Enters shadow 18:28:26 - 127° (SE) 1,914 4.9 -6.3°
